ZHONGXING-11

Last updated on Thu Jul 03 2025 00:02:46 GMT+0000 (Coordinated Universal Time)

1 39157U 13020A 25183.61956737 -.00000282 00000+0 00000+0 0 9995 2 39157 0.0206 26.5739 0001098 36.3333 178.9433 1.00267152 44395
UTC large
Height (km)
Speed (km/s)
/
Latitude / Longitude
Inclination (degrees)
Orbital Period (minutes)
Azimuth
Elevation
Range (km)
Doppler Factor

Next 0 passes for location: London (51.5072 / 0.1276)

Sorry there are no passes over London.